CW7693 Weather Reports


time (UTC)temp
F
wind
direction
speed
knots
gust
knots
rain 1hr
in
rain 24hr
in
rain mn
in
humidity
%
barometer
mb
20260503010106 50 168 0.9 2.6 0.00 0.00 0.00 75 1015.1
20260503004502 51 161 0.9 4.3 0.00 0.00 0.00 74 1015.1
20260503003103 51 148 0.0 3.5 0.00 0.00 0.00 74 1015.1
20260503001503 51 148 0.9 2.6 0.00 0.00 0.00 74 1015.2
20260503000104 51 157 0.9 4.3 0.00 0.00 0.00 75 1015.3
20260502234507 51 146 2.6 3.5 0.00 0.00 0.00 73 1015.4
20260502233102 52 153 1.7 3.5 0.00 0.00 0.00 72 1015.5
20260502231503 52 159 1.7 4.3 0.00 0.00 0.00 72 1015.6
20260502224501 54 156 1.7 3.5 0.00 0.00 0.00 68 1015.7
20260502223003 54 146 1.7 3.5 0.00 0.00 0.00 69 1015.8
20260502221602 55 159 0.0 1.7 0.00 0.00 0.00 68 1015.8
20260502214603 55 151 1.7 3.5 0.00 0.00 0.00 67 1015.8
20260502213002 56 142 1.7 3.5 0.00 0.00 0.00 66 1016.0
20260502211512 56 150 1.7 3.5 0.00 0.00 0.00 65 1016.1
20260502204510 58 146 0.9 2.6 0.00 0.00 0.00 62 1016.2
20260502203105 58 146 0.0 0.0 0.00 0.00 0.00 62 1016.3
20260502201504 59 146 0.0 1.7 0.00 0.00 0.00 61 1016.4
20260502200002 60 360 0.0 1.7 0.00 0.00 0.00 59 1016.4
20260502194602 60 360 0.0 2.6 0.00 0.00 0.00 56 1016.3
20260502193003 62 360 0.0 3.5 0.00 0.00 0.00 55 1016.3
20260502191603 63 360 1.7 3.5 0.00 0.00 0.00 52 1016.1
20260502190003 65 360 0.9 2.6 0.00 0.00 0.00 48 1015.9
20260502184605 67 304 0.0 5.2 0.00 0.00 0.00 45 1015.8
20260502183105 68 360 1.7 3.5 0.00 0.00 0.00 41 1015.7
20260502181502 70 9 0.9 2.6 0.00 0.00 0.00 39 1015.6
20260502180120 70 333 0.9 3.5 0.00 0.00 0.00 39 1015.6
20260502163102 72 15 3.5 7.8 0.00 0.00 0.00 36 1015.8
20260502161604 73 318 3.5 8.7 0.00 0.00 0.00 36 1016.0
20260502151521 74 313 7.0 10.4 0.00 0.00 0.00 36 1016.6
20260502123106 73 316 3.5 10.4 0.00 0.00 0.00 41 1018.5
20260502121508 73 327 4.3 11.3 0.00 0.00 0.00 42 1018.6
20260502120106 72 339 5.2 12.2 0.00 0.00 0.00 42 1018.9
20260502114503 72 355 3.5 10.4 0.00 0.00 0.00 43 1019.1
20260502113105 72 17 3.5 12.2 0.00 0.00 0.00 42 1019.3
20260502111502 71 292 4.3 9.6 0.00 0.00 0.00 43 1019.6
20260502110103 71 328 5.2 10.4 0.00 0.00 0.00 42 1019.7
20260502104503 70 355 5.2 11.3 0.00 0.00 0.00 43 1019.9
20260502103111 71 335 5.2 9.6 0.00 0.00 0.00 41 1020.0
20260502101504 70 338 3.5 10.4 0.00 0.00 0.00 42 1020.1
20260502100104 70 306 5.2 11.3 0.00 0.00 0.00 43 1020.3
20260502091502 68 15 3.5 9.6 0.00 0.00 0.00 43 1020.7
20260502090105 68 333 5.2 9.6 0.00 0.00 0.00 44 1020.9
20260502071502 55 148 1.7 2.6 0.00 0.00 0.00 66 1021.7
20260502070104 53 150 1.7 3.5 0.00 0.00 0.00 70 1021.9
20260502064605 51 360 1.7 4.3 0.00 0.00 0.00 71 1022.1
20260502063005 49 360 1.7 5.2 0.00 0.00 0.00 72 1022.2
20260502061602 46 360 2.6 5.2 0.00 0.00 0.00 77 1022.2
20260502060003 45 360 3.5 6.1 0.00 0.00 0.00 78 1022.3
20260502054605 45 360 2.6 5.2 0.00 0.00 0.00 78 1022.4
20260502053003 44 150 1.7 4.3 0.00 0.00 0.00 79 1022.4
20260502051601 43 153 1.7 4.3 0.00 0.00 0.00 81 1022.3
20260502050007 42 140 3.5 6.1 0.00 0.00 0.00 81 1022.3
20260502044602 43 145 1.7 4.3 0.00 0.00 0.00 81 1022.3
20260502043002 42 130 3.5 6.1 0.00 0.00 0.00 82 1022.3
20260502041602 41 149 2.6 6.1 0.00 0.00 0.00 83 1022.4
20260502040003 41 148 1.7 5.2 0.00 0.00 0.00 83 1022.3
20260502034603 41 165 0.9 4.3 0.00 0.00 0.00 81 1022.3
20260502033002 42 133 1.7 5.2 0.00 0.00 0.00 79 1022.2
20260502031604 42 136 1.7 4.3 0.00 0.00 0.00 80 1022.2
20260502030002 43 137 2.6 5.2 0.00 0.00 0.00 78 1022.2
20260502024602 43 147 1.7 5.2 0.00 0.00 0.00 78 1022.4
20260502023002 43 132 2.6 6.1 0.00 0.00 0.00 78 1022.5
20260502021603 42 140 3.5 5.2 0.00 0.00 0.00 80 1022.5
20260502020002 43 159 1.7 4.3 0.00 0.00 0.00 78 1022.6
20260502014602 43 133 3.5 5.2 0.00 0.00 0.00 78 1022.6
20260502013004 43 151 1.7 3.5 0.00 0.00 0.00 77 1022.8
20260502011604 44 141 1.7 5.2 0.00 0.00 0.00 76 1022.9